Dewpoint
40 41 43 43 44 44 44 45 46 46 46 47 47 48 48 48 49 49 50 51 51 51 51 52 52 52 52 52 53 53 54 54 54 54 54 54 54 55 55 56 56 57 57 57 57 57 58 58 58 59 59 60 60 61 61 61 61 61 61 61 61 62 62 62 62 62 62 62 62 62 62 61 61 61 61 61 62 62 62 62 62 62 62 62 62 63
38 39 40 41 42 42 43 44 45 45 45 46 46 47 47 48 48 48 49 50 50 51 51 51 51 52 52 52 52 53 53 53 53 54 54 54 54 54 54 54 55 55 56 56 57 57 57 57 57 58 58 59 59 60 60 60 61 61 61 61 61 61 61 61 62 62 62 62 62 61 61 61 61 61 61 61 62 62 62 62 62 62 62 63 63 63
37 37 38 39 40 40 41 42 43 45 45 46 46 47 47 47 47 48 48 49 49 50 51 51 51 51 51 51 52 52 52 53 53 53 53 53 53 54 54 54 54 54 54 55 55 56 56 57 57 57 57 57 58 58 58 59 59 59 59 60 60 60 60 60 61 61 61 61 61 60 60 60 61 61 61 62 62 62 62 62 62 62 63 63 63 63
36 36 35 37 38 39 40 41 43 44 45 46 46 46 46 46 46 47 47 48 48 49 50 50 50 50 51 51 51 52 52 52 52 53 53 53 53 53 53 53 53 54 54 54 54 55 55 55 56 56 57 57 57 57 57 57 57 57 58 58 58 58 58 58 59 59 59 59 59 59 59 60 60 61 61 61 62 62 62 62 62 62 63 63 64 63
36 35 35 36 37 37 39 40 42 43 45 45 45 45 45 45 45 46 46 47 48 48 49 49 49 50 50 50 51 52 52 52 52 52 52 52 52 52 53 53 53 53 53 53 54 54 54 55 55 55 55 56 56 56 56 56 57 57 57 57 57 57 57 57 57 57 57 58 58 58 58 59 60 60 61 61 62 62 62 62 62 63 63 64 64 64
35 35 36 36 36 36 37 39 41 42 43 43 44 44 44 44 44 45 45 46 47 47 48 48 48 49 49 49 50 51 52 52 52 52 52 52 52 52 52 52 52 52 53 53 53 53 54 54 54 54 55 55 55 55 55 56 56 56 56 56 56 56 57 57 57 57 57 57 57 57 58 58 58 59 60 61 61 62 62 62 63 63 64 64 64 64
34 35 36 36 36 36 37 38 39 41 42 42 42 43 43 43 43 44 44 45 46 46 47 48 48 48 48 49 50 50 51 51 51 52 52 52 52 52 52 52 52 52 52 52 53 53 53 53 54 54 54 54 54 54 55 55 55 55 55 55 56 56 56 56 56 57 57 57 57 57 57 57 57 58 58 59 60 61 62 62 63 63 63 64 64 64
34 34 35 36 36 36 36 37 39 40 41 41 41 41 42 42 43 43 43 44 45 46 46 47 47 47 47 48 48 49 50 50 50 50 51 51 51 51 52 52 52 52 52 52 52 52 53 53 53 53 54 54 54 54 54 54 54 54 54 54 55 55 55 56 56 56 56 57 57 57 57 57 57 57 57 58 59 60 61 61 62 62 63 63 63 64
32 32 32 34 35 35 34 35 37 39 41 41 41 41 41 42 42 42 43 43 44 45 45 45 45 46 46 47 48 48 49 49 49 50 50 50 50 51 51 52 52 52 52 52 52 52 52 52 53 53 53 53 53 54 53 53 53 53 53 54 54 54 55 55 55 56 56 56 57 57 57 57 57 57 57 57 58 58 59 60 61 61 62 62 63 63
31 30 30 32 33 34 34 34 36 38 40 41 41 42 42 42 42 42 42 42 43 43 44 44 44 45 45 46 46 47 48 49 49 50 50 50 50 50 51 51 51 51 51 52 52 52 52 52 52 52 53 53 53 53 53 52 52 52 52 53 53 53 54 54 55 55 56 56 56 56 57 57 57 57 57 57 57 57 58 58 59 60 61 61 62 62
26 27 27 28 30 31 33 34 35 37 40 41 41 42 42 42 42 42 41 41 41 42 43 43 43 44 44 45 45 46 47 47 48 49 49 49 49 50 50 50 50 50 50 51 51 51 51 51 52 52 52 52 52 52 52 52 52 52 52 52 52 52 53 53 54 54 55 55 56 56 56 57 57 57 57 57 57 57 57 57 58 58 59 60 61 61
21 21 22 23 25 27 29 31 34 37 39 39 39 39 40 41 41 41 40 39 39 40 41 42 43 43 43 44 44 45 45 46 46 47 47 47 48 48 48 48 49 49 49 50 50 50 50 51 51 51 51 52 52 52 52 51 51 51 51 52 52 52 52 52 53 53 54 54 55 55 56 56 56 57 57 57 57 57 57 57 57 57 57 58 59 60
20 19 19 20 21 22 24 26 29 31 33 34 34 34 35 38 39 40 40 39 39 39 40 41 41 42 43 43 43 44 44 44 45 45 45 46 46 46 47 47 48 48 48 49 49 49 50 50 51 51 51 51 51 51 51 51 51 51 51 51 51 52 52 52 52 52 53 53 54 54 55 55 55 56 56 56 56 56 56 56 56 56 57 57 58 59
19 19 18 18 18 19 21 23 25 26 28 30 32 33 34 36 38 39 39 39 39 39 40 40 41 41 41 42 43 43 43 43 44 44 44 45 45 45 46 46 46 47 48 48 48 48 49 50 50 50 51 51 51 51 51 51 50 50 51 51 51 51 51 52 52 52 52 52 53 53 53 54 54 55 55 56 56 56 56 56 56 56 56 57 57 57
19 19 18 17 17 18 19 21 23 25 26 29 31 33 34 35 37 38 38 37 38 39 40 40 40 40 40 41 42 43 43 43 43 43 44 44 44 44 45 45 46 46 47 47 47 48 48 49 49 50 50 51 51 51 51 51 51 51 51 51 51 51 51 51 51 52 52 52 52 52 53 53 53 54 54 55 55 55 55 56 56 56 56 56 57 57
20 20 19 18 18 18 19 21 21 23 25 27 29 31 32 34 35 36 36 37 38 39 39 39 39 38 37 39 42 43 43 42 43 43 43 43 43 44 44 44 45 45 46 46 46 47 48 48 48 49 49 50 50 50 50 51 51 51 51 51 51 51 51 51 51 51 52 52 52 52 52 52 52 53 53 54 54 55 55 55 55 55 56 56 56 56
21 20 20 19 19 19 19 20 21 22 24 25 27 29 30 32 34 35 36 37 38 39 39 39 38 36 34 36 39 42 42 42 41 42 42 42 43 43 44 44 44 44 45 45 46 46 47 47 48 48 49 49 49 49 50 50 51 51 51 51 51 51 51 51 51 51 51 51 52 52 52 52 52 52 52 53 53 54 54 54 55 55 55 56 56 56
22 21 21 20 20 19 20 20 21 23 25 23 24 25 27 30 32 34 36 37 38 39 39 39 38 37 35 34 37 40 42 41 41 41 41 41 41 42 43 43 44 44 44 45 45 45 46 46 47 48 48 48 49 49 49 50 50 50 51 51 50 50 50 50 51 51 51 51 51 51 51 52 52 52 52 52 52 53 53 54 54 55 55 55 56 56
23 23 22 21 21 21 21 21 21 21 21 21 22 23 25 27 30 33 35 37 38 38 39 39 38 37 36 36 37 39 41 41 40 40 40 40 40 41 42 43 43 43 44 44 45 45 46 46 47 47 47 48 48 48 49 49 50 50 50 50 50 50 50 50 50 51 51 51 51 51 51 51 51 51 51 52 52 52 52 53 54 54 55 55 55 55
25 25 24 23 23 22 22 21 21 21 21 23 24 25 25 28 29 30 32 34 35 36 38 38 38 38 37 38 38 39 41 41 40 40 40 40 40 40 41 42 42 43 43 43 44 45 45 45 46 47 47 47 48 48 48 49 49 49 49 49 50 50 50 50 50 50 50 51 51 51 51 51 51 51 51 51 51 52 52 52 53 54 54 54 55 55
27 26 25 25 24 23 22 22 22 23 25 27 27 26 26 27 27 28 29 31 33 34 36 36 37 38 39 39 39 39 40 40 40 40 40 39 39 39 40 41 41 41 42 43 43 44 45 45 45 46 46 47 47 48 48 48 48 48 49 49 49 49 49 49 50 50 50 50 50 50 50 50 51 51 51 51 51 51 52 52 52 53 53 54 54 54
28 28 27 26 25 25 24 24 25 26 28 29 29 27 26 26 26 27 28 30 31 32 33 34 36 38 39 40 41 41 41 41 41 40 40 39 38 38 39 40 40 40 41 41 43 43 44 44 45 45 46 47 47 48 48 48 48 48 48 48 48 48 48 49 49 49 50 50 50 50 50 50 50 50 50 51 51 51 51 52 52 52 53 53 54 54
27 28 28 28 27 27 27 26 27 27 29 29 29 29 29 28 28 28 29 30 32 33 34 35 36 37 39 40 41 41 41 41 41 41 40 38 37 37 38 39 39 39 39 40 42 43 43 44 44 45 46 47 47 47 47 48 48 48 48 48 48 48 48 48 48 49 49 49 50 50 50 50 50 50 50 50 51 51 51 51 52 52 52 52 53 53
26 27 27 27 28 28 28 28 28 28 29 30 30 30 31 31 31 31 32 32 33 33 34 34 34 35 35 36 37 38 39 40 41 41 40 38 37 37 37 38 38 39 39 39 41 42 42 43 43 44 45 46 46 47 47 47 47 47 47 47 47 47 48 48 48 48 49 49 49 50 50 50 50 50 50 50 50 51 51 51 51 51 52 52 52 52
27 27 27 27 29 30 29 30 30 30 30 30 30 31 31 32 32 32 32 32 32 32 32 32 32 31 31 32 33 34 36 39 40 40 40 38 37 37 38 38 38 38 38 39 40 41 41 42 43 43 44 45 45 46 46 46 46 46 46 46 47 47 47 47 48 48 48 49 49 49 50 50 50 50 50 50 50 50 51 51 51 51 51 51 52 52
30 30 30 30 31 32 33 33 33 33 32 31 31 31 31 31 31 31 30 30 30 30 31 30 30 30 30 30 30 30 33 36 39 40 40 39 38 38 38 38 39 39 39 39 40 40 41 41 42 42 43 43 44 45 45 46 46 46 46 46 46 46 47 47 48 48 48 49 49 49 49 50 50 50 50 50 50 50 51 51 51 51 51 51 51 51
32 33 33 34 34 34 34 34 34 34 34 34 33 32 32 31 31 30 30 30 30 30 30 30 29 29 29 29 29 29 30 34 37 40 40 39 39 38 38 38 39 39 39 39 39 40 41 41 41 42 42 42 43 44 45 45 45 45 45 46 46 46 46 47 47 48 48 48 49 49 49 49 49 49 50 50 50 50 50 51 51 51 51 51 51 51
32 32 32 33 33 33 34 34 34 34 34 35 35 34 34 32 31 31 31 31 30 30 30 29 29 28 28 28 28 29 30 31 34 38 40 40 39 38 38 38 38 39 39 39 39 40 40 41 41 41 41 42 42 43 44 44 45 45 45 45 45 46 46 47 47 48 48 48 49 49 49 49 49 49 49 50 50 50 50 51 51 51 50 51 52 52
31 32 32 32 33 33 33 33 34 34 34 35 35 35 34 33 32 32 32 32 31 31 30 30 29 29 29 28 28 29 30 30 32 35 39 39 39 38 39 38 38 38 38 39 39 39 39 39 39 39 40 41 41 41 42 43 43 44 44 45 45 45 46 46 47 48 48 48 48 49 49 49 49 49 49 49 49 50 50 50 51 51 51 51 51 51
29 30 30 30 31 31 31 31 32 33 34 34 34 34 33 33 33 33 33 33 33 32 31 30 30 30 30 29 29 29 29 30 31 34 38 38 38 38 38 37 37 37 38 38 38 37 37 37 37 38 39 40 40 40 39 40 41 42 43 43 44 44 45 46 47 47 48 48 48 48 48 49 49 49 49 49 49 50 50 50 51 51 51 51 51 50
27 27 27 27 28 28 28 29 29 30 31 32 32 32 31 31 32 32 33 33 33 33 32 32 31 31 30 30 29 28 27 28 31 35 39 38 37 38 38 37 36 37 38 38 37 36 35 35 36 37 37 38 39 39 39 39 40 40 41 42 43 43 44 45 46 47 47 48 48 48 48 48 48 48 48 48 49 49 50 50 50 51 51 50 50 49
27 27 27 26 26 26 26 27 27 27 28 29 29 29 29 30 30 30 31 32 33 33 33 33 33 32 32 31 30 29 28 28 31 35 38 37 38 38 38 37 36 36 38 39 38 37 35 35 35 35 35 36 37 37 39 39 39 39 41 41 42 42 43 45 46 46 47 47 48 48 48 48 48 48 48 48 48 48 49 49 50 50 50 50 49 48
28 28 27 27 27 26 26 26 26 26 26 27 27 27 27 28 28 29 30 30 31 32 32 33 33 33 33 33 32 32 31 30 31 34 36 36 37 38 38 37 37 37 38 39 39 38 38 37 36 35 34 34 34 35 37 38 39 39 40 40 41 41 42 43 45 46 47 47 47 48 48 48 48 48 48 48 48 48 48 49 49 49 50 49 48 48
30 29 28 28 27 27 27 27 27 27 27 26 26 26 26 26 27 28 28 29 30 31 32 32 33 34 34 34 34 34 33 33 33 34 35 35 36 37 38 38 38 38 38 38 39 39 38 38 37 36 35 34 34 34 35 36 38 39 38 39 40 40 40 42 43 44 46 46 46 47 47 47 47 48 48 48 48 48 48 48 48 48 48 48 48 48
29 29 28 28 28 28 27 27 27 27 27 27 27 27 27 27 27 27 27 28 29 30 30 31 33 34 34 35 35 34 34 34 35 35 36 35 36 37 38 39 39 39 39 38 38 38 38 37 37 36 36 34 33 33 33 34 35 36 36 38 39 39 39 40 41 42 44 45 45 45 46 46 47 47 47 47 48 48 48 48 48 48 48 48 47 47
28 28 27 27 27 27 27 27 27 27 27 27 27 27 27 27 27 27 27 28 28 29 30 30 31 33 34 35 35 35 35 35 35 36 36 36 37 38 38 39 39 39 39 39 38 38 37 37 37 37 37 36 34 34 33 32 33 34 35 36 37 38 39 39 39 40 42 43 44 45 45 45 46 46 47 47 47 48 48 48 48 48 48 48 47 47
28 28 27 27 27 27 27 27 27 26 26 26 27 28 28 28 28 28 28 28 28 28 29 30 30 31 32 33 34 34 34 35 35 35 36 37 38 38 38 39 39 39 39 39 38 38 37 37 37 37 37 36 36 34 33 32 32 32 33 34 36 37 38 38 39 40 40 41 42 43 44 45 45 46 46 47 47 47 48 48 48 48 48 47 47 47
29 28 28 27 27 27 27 27 27 27 27 27 27 28 28 28 28 29 29 30 30 30 30 29 30 30 31 32 32 33 33 33 33 34 34 36 37 37 38 38 39 39 39 39 39 39 38 37 36 36 36 35 36 35 34 33 32 32 32 33 34 35 36 37 38 39 39 40 41 42 43 45 45 46 46 46 46 46 46 47 47 48 47 47 47 47
28 28 27 27 27 27 27 27 28 28 28 28 28 28 28 28 29 29 29 29 30 30 30 30 30 31 32 33 34 34 34 34 34 34 34 35 36 36 37 37 37 38 39 39 39 39 39 38 37 36 36 34 34 34 33 32 31 31 30 32 32 33 34 36 37 39 39 39 40 41 42 43 44 45 45 45 45 45 45 45 46 47 47 47 47 47
27 27 26 26 26 26 26 27 27 28 28 29 30 30 29 29 29 29 29 29 29 29 30 30 30 31 32 34 34 35 35 36 36 36 36 35 35 35 36 36 36 37 38 39 39 39 39 38 38 37 36 35 34 34 35 31 30 31 32 32 32 33 34 35 37 38 39 39 39 40 40 41 42 43 44 44 45 45 44 45 45 46 46 46 45 45
27 27 26 25 25 25 25 26 26 28 29 30 30 30 30 30 30 29 29 29 29 28 28 29 29 30 31 32 34 34 35 35 36 36 36 36 36 36 36 36 37 37 37 38 38 39 39 39 39 38 38 36 36 35 36 34 33 34 34 33 32 32 34 35 36 36 37 38 39 39 40 40 41 42 43 44 44 45 45 45 45 45 46 46 45 45
28 27 26 26 26 25 25 26 28 30 31 33 33 34 33 33 33 32 31 30 29 28 28 27 28 28 30 30 32 33 35 35 36 37 37 37 36 36 36 37 37 37 37 37 37 38 39 39 39 39 38 38 37 36 36 35 34 34 36 34 34 33 34 34 34 35 37 38 38 39 40 40 40 40 41 43 43 44 45 45 45 45 45 45 45 45
28 27 27 27 27 27 28 29 30 31 33 34 34 34 34 34 34 33 33 32 32 32 31 31 31 31 31 32 33 34 35 36 36 37 37 36 36 36 36 37 38 38 38 38 37 37 38 39 39 39 39 38 38 37 36 36 34 33 34 34 34 33 31 31 32 34 36 37 38 38 39 39 39 40 40 41 41 42 43 44 45 45 46 45 45 45
29 29 29 29 29 29 29 29 30 30 31 31 31 32 33 34 34 34 34 34 34 34 34 34 34 34 34 34 34 35 36 37 37 37 37 37 37 36 36 37 38 38 39 38 37 37 37 37 38 39 39 39 38 38 37 37 35 33 32 33 34 34 34 33 32 33 34 36 37 38 38 39 39 39 39 40 40 40 41 42 43 44 45 45 45 45
30 31 31 31 31 31 30 30 29 29 28 28 28 29 30 32 34 34 34 34 34 34 34 34 34 34 33 33 34 34 34 36 37 38 38 38 38 38 37 37 38 38 39 38 38 37 37 36 37 38 39 39 39 38 38 38 37 35 33 34 34 34 34 33 33 33 34 35 36 37 37 38 38 38 39 39 39 39 40 41 42 43 44 45 45 44
30 30 30 30 30 30 30 29 28 27 26 26 25 25 26 28 30 32 32 32 32 32 32 32 32 32 31 31 32 32 32 33 34 35 37 38 38 38 38 38 38 39 39 39 39 38 38 37 37 38 39 39 38 38 39 38 38 37 35 34 34 34 33 32 32 32 33 34 35 36 37 37 38 38 38 38 39 39 40 40 41 42 43 43 44 44
29 29 29 28 28 27 27 27 27 26 25 25 25 25 25 26 27 28 29 29 29 28 28 28 29 29 28 28 29 29 29 29 30 32 34 35 37 37 38 38 38 39 39 39 39 39 38 38 38 38 38 37 37 38 38 38 38 37 37 35 34 33 33 33 32 31 32 34 34 35 36 36 37 37 37 38 38 39 39 40 40 41 42 42 43 43
27 28 28 27 27 27 26 26 26 25 25 25 25 25 25 25 26 26 26 26 25 25 25 25 25 25 26 26 26 27 27 27 28 29 30 32 34 36 37 38 38 39 39 39 39 39 39 39 39 39 39 38 37 37 38 38 37 37 37 36 35 34 34 34 32 31 32 33 34 34 36 36 36 36 36 37 37 38 38 39 39 40 41 42 42 43
26 27 27 27 27 27 26 26 26 26 26 26 26 25 25 26 26 26 26 25 25 24 24 24 24 25 25 25 25 26 26 26 26 27 28 30 32 34 35 37 38 38 38 38 39 39 39 39 39 39 39 39 38 37 37 38 37 37 37 37 36 34 34 34 33 32 33 33 33 34 35 36 36 36 36 36 36 36 37 38 39 39 40 41 42 42
25 26 26 26 26 26 27 27 27 27 27 27 27 26 26 26 26 25 25 25 25 25 24 24 24 24 24 25 25 25 26 26 26 26 27 29 30 31 33 35 36 36 36 36 36 36 37 37 38 39 40 40 39 38 37 37 37 37 37 37 36 35 34 34 33 34 34 34 34 34 35 36 36 36 36 36 35 35 36 36 37 38 39 39 40 41
25 25 25 25 26 26 26 27 27 27 27 28 27 27 27 27 26 26 26 25 25 25 24 24 24 24 25 25 25 25 26 26 26 27 27 28 29 30 32 34 35 35 34 34 34 34 34 34 34 35 37 39 40 39 38 38 37 37 37 37 37 35 34 34 34 34 34 34 34 34 34 35 36 36 36 35 35 35 35 35 36 37 38 37 38 39